Other Public Products
Issued by NWS Grand Forks, ND

Home | Current Version | Previous Version | Text Only | Print | Product List | Glossary On
Versions: 1 2 3 4 5 6 7 8 9 10 11 12 13 14 15 16 17 18 19 20 21 22 23 24 25 26 27 28 29 30 31 32 33 34 35 36 37 38 39 40 41 42 43 44 45 46 47 48 49 50
000
FPUS83 KFGF 081310
OPUFGF
PRAIRIE TO PINES WEATHER ROUNDUP
NATIONAL WEATHER SERVICE EASTERN NORTH DAKOTA/GRAND FORKS ND
700 AM CST MON FEB 08 2016

 **SATELLITE DATA USED TO AUGMENT SKY COVER AT AUTOMATED STATIONS**
 *****  WEATHER ACROSS EASTERN NORTH DAKOTA  *****

CITY           SKY/WX    TMP DP  RH WIND       PRES   REMARKS
GRAND FORKS    FLURRIES  13   8  81 N16       30.15S WCI  -3
GRAND FORKS AF FLURRIES  14   7  73 N17       30.15R WCI  -3
GRAND CITY NWS   N/A     10 N/A N/A N16         N/A  WCI  -7
BUXTON           N/A     -3  10 100 N15         N/A  WCI -23
DEVILS LAKE    FLURRIES  16  12  84 N13       30.17R WCI   2
FARGO          HAZE      13   8  81 N28G33    30.13S VSB 3/4 WCI  -8
WAHPETON ARPT  CLOUDY    12   9  85 N23       30.10R WCI  -7
$$

 *****  WEATHER ACROSS CENTRAL AND WESTERN NORTH DAKOTA  *****

CITY           SKY/WX    TMP DP  RH WIND       PRES   REMARKS
JAMESTOWN      CLOUDY    20  11  68 N25G33    30.14R WCI   2
BISMARCK       CLEAR     26  17  68 NW16G24   30.27R WCI  14
MINOT          CLEAR     24  14  65 W22       30.25R WCI   9
MINOT AFB      CLEAR     21  17  83 NW17      30.25R WCI   6
GARRISON         N/A     20  16  84 NW21      30.26R WCI   4
WILLISTON      CLOUDY    23  16  74 NW12      30.36R WCI  12
DICKINSON      CLEAR     18  13  80 NW15      30.29R WCI   4
HETTINGER      CLEAR     20  13  74 NW15      30.32R WCI   6
$$

 *****  OTHER OBSERVATIONS NORTHEAST NORTH DAKOTA  *****

CITY           SKY/WX    TMP DP  RH WIND       PRES   REMARKS
WALHALLA       FAIR      14  10  85 N21G30    30.19R WCI  -4
LANGDON        FLURRIES  14   9  79 N24G32    30.13R WCI  -5
CAVALIER       LGT SNOW  14   9  79 N22G35    30.17R WCI  -4
GRAFTON        LGT SNOW  14  10  85 N24       30.18S WCI  -5
CANDO          NOT AVBL
FORT TOTTEN      N/A     16  13  88 N3        29.95S
ROLLA          FAIR      14  10  85 NW26G33   30.16S WCI  -6
RUGBY          FAIR      16  10  79 NW14      30.21S WCI   1
 ***** THE ABOVE OBSERVATIONS ARE NON NWS ARE NOT QUALITY
        CONTROLLED AND MAY MIS-REPORT RAIN FOR SNOW...
$$

 *****  OTHER OBSERVATIONS SOUTHEAST NORTH DAKOTA *****

CITY           SKY/WX    TMP DP  RH WIND       PRES   REMARKS
COOPERSTOWN    NOT AVBL
VALLEY CITY    FLURRIES  16  12  86 N17G29    30.15R WCI   0
OAKES          CLOUDY    19  16  86 N22       30.13R WCI   3
GWINNER        CLOUDY    21  14  73 N16G32    30.13R WCI   7
BUFFALO          N/A     15   8  75 N22         N/A  WCI  -3
WYNDMERE       NOT AVBL
 ***** THE ABOVE OBSERVATIONS ARE NON NWS ARE NOT QUALITY
       CONTROLLED AND MAY MIS-REPORT RAIN FOR SNOW...
$$

  *****  WEATHER ACROSS NORTHERN MINNESOTA  *****

CITY           SKY/WX    TMP DP  RH WIND       PRES   REMARKS
FLAG ISLAND    CLOUDY     3  -2  78 NW23      30.02R WCI -19
WARROAD        LGT SNOW   5  -2  72 NW18G26   30.05R WCI -15
ROSEAU         LGT SNOW   9   1  72 NW18      30.06R WCI -10
HALLOCK        CLOUDY    10   7  85 N24G30    30.14R HAZE    WCI -10
THF RVR FALLS  NOT AVBL
HALSTAD        NOT AVBL
FOSSTON        LGT SNOW   5   1  85 NW18      30.05R WCI -15
BAUDETTE       CLOUDY     3  -4  72 NW16      29.98R WCI -16
WASKISH        CLOUDY     1  -2  85 NW12      29.99R WCI -15
CROOKSTON      LGT SNOW  10   7  85 N26G35    30.13R WCI -11
$$
  *****  WEATHER ACROSS CENTRAL AND WEST MINNESOTA  *****

CITY           SKY/WX    TMP DP  RH WIND       PRES   REMARKS
BEMIDJI        CLOUDY     3  -2  79 NW17      29.98R WCI -17
PARK RAPIDS    MIX PCPN   6  -2  69 NW20G30   29.95R WCI -14
WADENA         LGT SNOW   5   0  78 NW23G32   29.96R WCI -17
DETROIT LAKES  LGT SNOW  10   5  79 N22G37    30.02S WCI  -9
MOORHEAD         N/A     10   9  92 N33G41    30.12R WCI -13
FERGUS FALLS   LGT SNOW  10   7  85 N25G36    30.08R WCI -10
ELBOW LAKE     LGT SNOW  10   6  85 NW25G33   30.03S WCI -12
MORRIS MN      SNOW      12   7  79 N37G45    30.01S VSB 1/2 WCI -11
STAPLES        LGT SNOW   5   1  85 NW17      29.95R WCI -14
WHEATON        LGT SNOW  14  10  85 NW26G33   30.10F WCI  -6
$$
  *****  WEATHER ELSEWHERE ACROSS MINNESOTA  *****

CITY           SKY/WX    TMP DP  RH WIND       PRES   REMARKS
DULUTH         LGT SNOW   8   2  76 NW16G25   29.77R BLWGSNOWWCI -10
INTRNTL FALLS  LGT SNOW   5   0  79 NW13G25   29.92R WCI -12
ELY            LGT SNOW   9   7  92 NW6       29.79R WCI  -1
CLOQUET        LGT SNOW   9   1  72 NW13G23   29.81R WCI  -7
BRAINERD       LGT SNOW   6   0  76 NW18      29.92R WCI -13
HIBBING        CLOUDY     4   0  83 NW15      29.84R WCI -14
ALEXANDRIA     LGT SNOW   8   0  69 N28G36    29.97R WCI -14
SAINT CLOUD    CLOUDY     8   1  73 NW14G25   29.91R WCI  -8
MINNEAPOLIS    FLURRIES  12   4  70 NW23G32   29.87R WCI  -7
$$

  *****  WEATHER ACROSS SOUTH DAKOTA  *****

CITY           SKY/WX    TMP DP  RH WIND       PRES   REMARKS
SIOUX FALLS    LGT SNOW  20  14  77 N31G43    30.04R VSB 1   WCI   1
BROOKINGS      LGT SNOW  17  12  80 N26G35    30.01S WCI  -2
WATERTOWN      LGT SNOW  17  11  77 N36G44    30.03F WCI  -4
HURON          MOCLDY    24  16  71 N20G31    30.13R WCI  10
SISSETON         N/A     16  11  80 N24G39    30.08S WCI  -2
ABERDEEN       FLURRIES  23  15  71 N22G36    30.15R WCI   8
MITCHELL       CLOUDY    26  18  71 NW24      30.14R WCI  11
PIERRE         CLEAR     26  17  68 NW24G32   30.23S WCI  11
MOBRIDGE       CLEAR     26  16  65 NW16G26   30.21R WCI  14
RAPID CITY     CLOUDY    28   8  43 NW25G33   30.30S WCI  13
$$

  *****  SOME WEATHER IN NEARBY STATES *****

CITY           SKY/WX    TMP DP  RH WIND       PRES   REMARKS
GLASGOW MT     CLOUDY    21  15  78 W6        30.40S WCI  13
GREAT FALLS MT CLEAR     34  22  61 SW15      30.42R WCI  24
CHEYENNE WY    CLOUDY    34  19  54 NW18G29   30.31R WCI  23
SCOTTSBLUFF NE CLOUDY    21  11  65 W13       30.37R WCI   9
OMAHA NE       FLURRIES  27  19  72 NW25G35   30.02R WCI  12
DES MOINES IA  LGT SNOW  18  11  74 NW22G29   29.91R BLWGSNOWWCI   1
DAVENPORT IA   LGT SNOW  19  12  74 NW17G26   29.75R WCI   4
CHICAGO IL     LGT SNOW  30  27  88 NW10      29.62R FOG     WCI  21
EAU CLAIRE WI  FLURRIES  15   7  70 NW13G21   29.76R WCI   1
LA CROSSE WI   CLOUDY    18  11  74 NW14      29.75R WCI   4
$$

  *****  SOME NATIONAL WEATHER *****

CITY           SKY/WX    TMP DP  RH WIND       PRES   REMARKS
LA GUARDIA NY  CLOUDY    38  27  64 NE21G28   29.79R
RALEIGH NC     PTCLDY    30  24  78 CALM      29.83S
ATLANTA GA     PTCLDY    37  24  59 SW7       29.85S
NEW ORLEANS LA PTCLDY    50  42  74 W15       30.09F
OKLAHOMA CITY  CLEAR     36  16  44 NW16      30.28S
ALBUQUERQUE NM CLOUDY    33  19  56 N10       30.44R WCI  25
SALT LAKE CITY PTCLDY    26  21  81 CALM      30.67R
LOS ANGELES CA CLEAR     55  32  41 CALM      30.10S
BOISE ID       CLEAR     32  27  81 SE8       30.67R WCI  25
SEATTLE WA     CLEAR     40  37  89 N6        30.46S
$$

*** WEATHER ACROSS MANITOBA...SASKATCHEWAN AND ONTARIO ***
                ***ONTARIO***

CITY           SKY/WX    TMP DP  RH WIND       PRES   REMARKS
GERALDTON      FLURRIES  -4  -9  77 N10G17    29.77S WCI -21
THUNDER BAY    CLOUDY     5  -2  72 NW7G17    29.79R WCI  -7
SIOUX LOOKOUT  LGT SNOW   0  -4  85 N7        29.88R WCI -13
TORONTO        MOCLDY    34  30  86 E10       29.69F
BIG TROUT LK   MOCLDY   -18 -24  76 NE3       30.08S
PICKLE LAKE    FLURRIES  -9 -15  77 N8        29.90R WCI -26
DRYDEN         LGT SNOW   3   0  85 N7        29.88S WCI  -9
KENORA         FLURRIES   0  -6  78 N17       29.98R WCI -21
$$
                *** MANITOBA***

CITY           SKY/WX    TMP DP  RH WIND       PRES   REMARKS
BRANDON        MOCLDY     7   3  85 NW10      30.23R WCI  -8
DAUPHIN        FLURRIES  12   7  79 W9        30.27R WCI   0
ISLAND LAKE    NOT AVBL
PILOT MOUND      N/A     12   9  85 N16         N/A  WCI  -4
THE PAS        FLURRIES   5   0  78 N7        30.32R WCI  -7
THOMPSON       FLURRIES   0  -6  78 NW9       30.24R WCI -16
WINNIPEG       LGT SNOW   9   1  72 N25G40    30.18R BLWGSNOWWCI -13
LYNN LAKE      CLEAR    -13 -17  84 NW7       30.26S WCI -29
CHURCHILL      FLURRIES  -8 -13  77 NW16      30.19S WCI -30
GILLAM         FLURRIES  -2  -9  71 NW6       30.19R WCI -14
$$
                ***SASKATCHEWAN***

CITY           SKY/WX    TMP DP  RH WIND       PRES   REMARKS
ESTEVAN        PTCLDY    18  14  86 NW15      30.32R WCI   3
KINDERSLEY     CLOUDY    21  18  86 SE5       30.35S WCI  15
LLOYDMINSTER   CLOUDY    25  19  80 SW8       30.29F WCI  16
PRINCE ALBERT  PTCLDY     5   3  92 W3        30.36R
REGINA         MOCLDY    16  14  93 NW9       30.35R WCI   4
YORKTON        CLOUDY    16  10  79 NW16      30.29R WCI   0
N. BATTLEFORD  CLOUDY    19  14  79 SE2       30.37R   C1F1C2F2C3F3C4F4C5F5C6F6C7F7C8F8C9F9CaFaCbFbCcFcCdFdCe!


USA.gov is the U.S. government's official web portal to all federal, state and local government web resources and services.